W5MAI Weather Reports


Display with metric or nautical units.
time (UTC)temp
F
wind
direction
speed
MPH
gust
MPH
rain 1hr
in
rain 24hr
in
rain mn
in
humidity
%
barometer
mb
20260905184325 91 118 3.0 10.0 0.00 0.00 0.00 56 1015.5
20260905182337 91 173 4.0 7.0 0.00 0.00 0.00 56 1015.7
20260905181343 91 257 3.0 11.0 0.00 0.00 0.00 56 1016.1
20260905180412 91 209 3.0 9.0 0.00 0.00 0.00 54 1016.2
20260905175332 89 98 5.0 8.0 0.00 0.00 0.00 58 1016.3
20260905174358 89 145 4.0 10.0 0.00 0.00 0.00 60 1016.5
20260905173404 89 156 1.0 5.0 0.00 0.00 0.00 61 1016.6
20260905172419 88 200 1.0 9.0 0.00 0.00 0.00 63 1016.6
20260905171334 88 154 4.0 8.0 0.00 0.00 0.00 65 1016.7
20260905170340 87 175 4.0 9.0 0.00 0.00 0.00 68 1016.7
20260905165416 87 227 4.0 10.0 0.00 0.00 0.00 67 1016.9
20260905164339 86 217 4.0 9.0 0.00 0.00 0.00 69 1016.9
20260905163400 87 163 5.0 10.0 0.00 0.00 0.00 69 1016.9
20260905162325 87 186 4.0 7.0 0.00 0.00 0.00 68 1016.9
20260905160345 86 202 2.0 7.0 0.00 0.00 0.00 71 1017.0
20260905155406 86 207 4.0 7.0 0.00 0.00 0.00 72 1017.0
20260905154331 85 136 5.0 9.0 0.00 0.00 0.00 73 1017.1
20260905144344 82 171 3.0 9.0 0.00 0.00 0.00 82 1016.9
20260905143419 82 188 3.0 7.0 0.00 0.00 0.00 82 1016.9
20260905142323 81 203 3.0 8.0 0.00 0.00 0.00 84 1016.9
20260905141354 81 257 2.0 6.0 0.00 0.00 0.00 86 1016.7
20260905140415 80 204 2.0 5.0 0.00 0.00 0.00 88 1016.7
20260905134345 78 46 0.0 0.0 0.00 0.00 0.00 88 1016.6
20260905133347 78 46 0.0 0.0 0.00 0.00 0.00 90 1016.5
20260905132401 77 46 0.0 0.0 0.00 0.00 0.00 92 1016.3
20260905131422 75 46 0.0 0.0 0.00 0.00 0.00 93 1016.3
20260905124346 72 46 0.0 0.0 0.00 0.00 0.00 93 1016.0
20260905123406 72 46 0.0 0.0 0.00 0.00 0.00 92 1015.8
20260905122328 73 46 0.0 0.0 0.00 0.00 0.00 92 1015.9
20260905120349 73 176 0.0 0.0 0.00 0.00 0.00 92 1015.6
20260905115418 73 176 0.0 1.0 0.00 0.00 0.00 92 1015.6
20260905114340 73 176 0.0 0.0 0.00 0.00 0.00 91 1015.6
20260905113356 73 176 0.0 0.0 0.00 0.00 0.00 91 1015.8
20260905112325 73 176 0.0 0.0 0.00 0.00 0.00 91 1015.6
20260905111355 73 176 0.0 0.0 0.00 0.00 0.00 91 1015.6
20260905110419 74 176 0.0 0.0 0.00 0.00 0.00 91 1015.6
20260905105341 74 176 0.0 0.0 0.00 0.00 0.00 90 1015.5
20260905104402 74 176 0.0 0.0 0.00 0.00 0.00 90 1015.3
20260905103323 74 176 0.0 0.0 0.00 0.00 0.00 90 1015.2
20260905100345 75 176 0.0 0.0 0.00 0.00 0.00 89 1015.3
20260905095412 76 176 0.0 0.0 0.00 0.00 0.00 90 1015.1
20260905094331 76 176 0.0 0.0 0.00 0.00 0.00 89 1015.2
20260905093406 76 176 0.0 0.0 0.00 0.00 0.00 89 1015.2
20260905092324 76 176 0.0 0.0 0.00 0.00 0.00 89 1015.3
20260905091353 77 176 0.0 0.0 0.00 0.00 0.00 88 1015.2
20260905090413 77 176 0.0 0.0 0.00 0.00 0.00 87 1015.2
20260905085327 78 176 0.0 0.0 0.00 0.00 0.00 87 1015.2
20260905084344 78 176 0.0 0.0 0.00 0.00 0.00 87 1015.3
20260905083413 78 176 0.0 0.0 0.00 0.00 0.00 87 1015.3
20260905082331 78 176 0.0 1.0 0.00 0.00 0.00 87 1015.5
20260905081346 79 176 0.0 0.0 0.00 0.00 0.00 86 1015.5
20260905080350 79 176 0.0 1.0 0.00 0.00 0.00 86 1015.5
20260905075356 79 176 0.0 3.0 0.00 0.00 0.00 85 1015.5
20260905074337 79 168 2.0 5.0 0.00 0.00 0.00 85 1015.5
20260905073347 79 138 1.0 3.0 0.00 0.00 0.00 84 1015.9
20260905072407 79 161 2.0 5.0 0.00 0.00 0.00 84 1015.9
20260905071416 79 119 1.0 3.0 0.00 0.00 0.00 84 1015.8
20260905070352 79 137 3.0 6.0 0.00 0.00 0.00 84 1016.0
20260905065343 79 189 2.0 5.0 0.00 0.00 0.00 83 1016.0
20260905064328 79 163 0.0 3.0 0.00 0.00 0.00 82 1015.9
20260905063331 79 163 0.0 2.0 0.00 0.00 0.00 81 1016.0
20260905062345 79 163 0.0 2.0 0.00 0.00 0.00 81 1016.1
20260905061330 80 163 1.0 5.0 0.00 0.00 0.00 80 1016.1
20260905060335 80 189 1.0 4.0 0.00 0.00 0.00 79 1015.9
20260905055349 80 182 1.0 5.0 0.00 0.00 0.00 78 1016.0
20260905054334 80 165 1.0 6.0 0.00 0.00 0.00 77 1015.9
20260905053335 80 184 2.0 6.0 0.00 0.00 0.00 77 1016.1
20260905052349 81 123 1.0 4.0 0.00 0.00 0.00 76 1016.2
20260905051334 81 152 1.0 5.0 0.00 0.00 0.00 75 1016.2
20260905050336 81 127 0.0 6.0 0.00 0.00 0.00 75 1016.1
20260905045407 81 124 3.0 7.0 0.00 0.00 0.00 75 1016.1
20260905044336 81 128 3.0 8.0 0.00 0.00 0.00 74 1016.0
20260905043414 81 141 2.0 5.0 0.00 0.00 0.00 74 1016.1
20260905042329 81 136 1.0 4.0 0.00 0.00 0.00 73 1016.2
20260905041359 82 143 1.0 5.0 0.00 0.00 0.00 73 1016.0
20260905040323 82 141 1.0 4.0 0.00 0.00 0.00 72 1016.0
20260905035341 82 107 0.0 2.0 0.00 0.00 0.00 71 1016.0
20260905034355 82 107 1.0 4.0 0.00 0.00 0.00 71 1016.1
20260905033423 82 130 2.0 3.0 0.00 0.00 0.00 71 1015.9
20260905032350 82 117 1.0 3.0 0.00 0.00 0.00 70 1015.8
20260905031411 82 117 1.0 3.0 0.00 0.00 0.00 70 1015.6
20260905030419 82 117 1.0 3.0 0.00 0.00 0.00 70 1015.6
20260905025344 83 117 0.0 3.0 0.00 0.00 0.00 69 1015.4
20260905024356 83 117 1.0 3.0 0.00 0.00 0.00 69 1015.4
20260905023326 83 117 0.0 6.0 0.00 0.00 0.00 68 1015.1
20260905022351 83 107 1.0 4.0 0.00 0.00 0.00 68 1015.0
20260905021325 84 109 0.0 5.0 0.00 0.00 0.00 67 1014.9
20260905015354 84 103 1.0 4.0 0.00 0.00 0.00 66 1014.9
20260905014414 84 110 1.0 8.0 0.00 0.00 0.00 66 1014.8
20260905013339 85 88 2.0 4.0 0.00 0.00 0.00 65 1014.8
20260905012359 85 63 0.0 5.0 0.00 0.00 0.00 64 1014.7
20260905011322 85 91 3.0 8.0 0.00 0.00 0.00 64 1014.6
20260905010358 86 126 0.0 0.0 0.00 0.00 0.00 63 1014.4
20260905005422 87 127 0.0 1.0 0.00 0.00 0.00 61 1014.4
20260905004345 87 127 0.0 3.0 0.00 0.00 0.00 59 1014.3
20260905003418 88 127 1.0 4.0 0.00 0.00 0.00 58 1014.4
20260905001343 89 137 2.0 8.0 0.00 0.00 0.00 57 1014.2
20260905000417 90 109 2.0 10.0 0.00 0.00 0.00 57 1013.8
20260904234346 90 116 4.0 9.0 0.00 0.00 0.00 55 1013.7
20260904233419 91 121 4.0 9.0 0.00 0.00 0.00 54 1013.6
20260904232337 91 107 4.0 10.0 0.00 0.00 0.00 52 1013.7
20260904231336 91 147 4.0 10.0 0.00 0.00 0.00 51 1013.7
20260904230355 90 157 3.0 9.0 0.00 0.00 0.00 53 1013.9
20260904225421 90 128 2.0 9.0 0.00 0.00 0.00 56 1013.7
20260904222347 91 138 5.0 9.0 0.00 0.00 0.00 58 1014.1
20260904221348 90 105 2.0 7.0 0.00 0.00 0.00 58 1014.1
20260904220347 90 250 4.0 11.0 0.00 0.00 0.00 58 1014.2
20260904215346 90 87 4.0 10.0 0.00 0.00 0.00 59 1014.1
20260904214416 90 146 3.0 9.0 0.00 0.00 0.00 60 1014.5
20260904211338 88 165 4.0 10.0 0.00 0.00 0.00 61 1015.0
20260904210352 89 150 4.0 10.0 0.00 0.00 0.00 61 1015.2
20260904205422 89 121 5.0 9.0 0.00 0.00 0.00 62 1015.1
20260904204336 88 160 3.0 8.0 0.00 0.00 0.00 63 1015.2
20260904203405 89 113 3.0 7.0 0.00 0.00 0.00 64 1015.3
20260904202422 88 140 2.0 6.0 0.00 0.00 0.00 63 1015.2
20260904195337 88 179 3.0 7.0 0.00 0.00 0.00 63 1015.6
20260904194405 88 223 0.0 9.0 0.00 0.00 0.00 64 1015.7
20260904193407 89 180 4.0 7.0 0.00 0.00 0.00 64 1015.8
20260904192418 88 192 2.0 7.0 0.00 0.00 0.00 64 1015.8
20260904191333 88 194 4.0 8.0 0.00 0.00 0.00 66 1016.0
20260904190345 87 87 3.0 10.0 0.00 0.00 0.00 68 1016.1
20260904185412 87 142 4.0 6.0 0.00 0.00 0.00 68 1016.2